Time,TemperatureF,DewpointF,PressureIn,WindDirection,WindDirectionDegrees,WindSpeedMPH,WindSpeedGustMPH,Humidity,HourlyPrecipIn,Conditions,Clouds,dailyrainin,SoftwareType,DateUTC
2013-06-16 00:01:00,65.0,17.0,-100.00,South,191,7.0,9.0,16,0.00,,,-99.99,,2013-06-16 06:01:00,
2013-06-16 00:11:00,64.0,17.0,-100.00,South,176,6.0,6.0,16,0.00,,,-99.99,,2013-06-16 06:11:00,
2013-06-16 00:22:00,62.0,18.0,-100.00,WSW,254,1.0,3.0,18,0.00,,,-99.99,,2013-06-16 06:22:00,
2013-06-16 00:33:00,62.0,18.0,-100.00,South,171,4.0,6.0,18,0.00,,,-99.99,,2013-06-16 06:33:00,
2013-06-16 00:43:00,62.0,19.0,-100.00,South,191,5.0,7.0,19,0.00,,,-99.99,,2013-06-16 06:43:00,
2013-06-16 00:52:00,62.0,18.0,-100.00,SW,216,3.0,6.0,18,0.00,,,-99.99,,2013-06-16 06:52:00,
2013-06-16 01:01:00,61.0,18.0,-100.00,West,260,1.0,4.0,19,0.00,,,-99.99,,2013-06-16 07:01:00,
2013-06-16 01:11:00,63.0,17.0,-100.00,South,178,4.0,6.0,16,0.00,,,-99.99,,2013-06-16 07:11:00,
2013-06-16 01:22:00,61.0,18.0,-100.00,East,86,2.0,4.0,18,0.00,,,-99.99,,2013-06-16 07:22:00,
2013-06-16 01:32:00,59.0,19.0,-100.00,ESE,113,0.0,1.0,21,0.00,,,-99.99,,2013-06-16 07:32:00,
2013-06-16 01:43:00,59.0,18.0,-100.00,SSE,151,2.0,4.0,20,0.00,,,-99.99,,2013-06-16 07:43:00,
2013-06-16 01:53:00,61.0,19.0,-100.00,ENE,75,3.0,4.0,20,0.00,,,-99.99,,2013-06-16 07:53:00,
2013-06-16 02:02:00,60.0,18.0,-100.00,SSW,196,2.0,6.0,19,0.00,,,-99.99,,2013-06-16 08:02:00,
2013-06-16 02:11:00,60.0,19.0,-100.00,NE,54,1.0,2.0,20,0.00,,,-99.99,,2013-06-16 08:11:00,
2013-06-16 02:22:00,57.0,18.0,-100.00,ESE,119,1.0,2.0,21,0.00,,,-99.99,,2013-06-16 08:22:00,
2013-06-16 02:33:00,58.0,20.0,-100.00,East,89,1.0,2.0,23,0.00,,,-99.99,,2013-06-16 08:33:00,
2013-06-16 02:54:00,61.0,17.0,-100.00,East,89,4.0,5.0,18,0.00,,,-99.99,,2013-06-16 08:54:00,
2013-06-16 03:01:00,58.0,20.0,-100.00,SE,128,2.0,3.0,22,0.00,,,-99.99,,2013-06-16 09:01:00,
2013-06-16 03:11:00,56.0,20.0,-100.00,ESE,106,4.0,5.0,24,0.00,,,-99.99,,2013-06-16 09:11:00,
2013-06-16 03:22:00,57.0,18.0,-100.00,East,89,2.0,4.0,21,0.00,,,-99.99,,2013-06-16 09:22:00,
2013-06-16 03:33:00,58.0,20.0,-100.00,ESE,113,3.0,4.0,23,0.00,,,-99.99,,2013-06-16 09:33:00,
2013-06-16 03:42:00,56.0,20.0,-100.00,ESE,110,4.0,6.0,24,0.00,,,-99.99,,2013-06-16 09:42:00,
2013-06-16 03:52:00,54.0,20.0,-100.00,ESE,114,3.0,4.0,26,0.00,,,-99.99,,2013-06-16 09:52:00,
2013-06-16 04:01:00,60.0,17.0,-100.00,ESE,102,4.0,4.0,18,0.00,,,-99.99,,2013-06-16 10:01:00,
2013-06-16 04:22:00,61.0,17.0,-100.00,ESE,113,6.0,6.0,18,0.00,,,-99.99,,2013-06-16 10:22:00,
2013-06-16 04:53:00,59.0,18.0,-100.00,SE,134,6.0,7.0,20,0.00,,,-99.99,,2013-06-16 10:53:00,
2013-06-16 05:11:00,55.0,20.0,-100.00,SSE,155,4.0,6.0,26,0.00,,,-99.99,,2013-06-16 11:11:00,
2013-06-16 05:22:00,54.0,19.0,-100.00,ESE,110,2.0,4.0,25,0.00,,,-99.99,,2013-06-16 11:22:00,
2013-06-16 05:33:00,53.0,20.0,-100.00,SE,136,2.0,3.0,27,0.00,,,-99.99,,2013-06-16 11:33:00,
2013-06-16 05:43:00,54.0,20.0,-100.00,SSE,158,1.0,2.0,26,0.00,,,-99.99,,2013-06-16 11:43:00,
2013-06-16 05:52:00,55.0,19.0,-100.00,South,169,1.0,2.0,24,0.00,,,-99.99,,2013-06-16 11:52:00,
2013-06-16 06:02:00,57.0,21.0,-100.00,SE,131,3.0,4.0,24,0.00,,,-99.99,,2013-06-16 12:02:00,
2013-06-16 06:11:00,53.0,20.0,-100.00,SSE,160,4.0,5.0,27,0.00,,,-99.99,,2013-06-16 12:11:00,
2013-06-16 06:22:00,54.0,21.0,-100.00,NE,49,1.0,1.0,27,0.00,,,-99.99,,2013-06-16 12:22:00,
2013-06-16 06:32:00,54.0,22.0,-100.00,ESE,113,1.0,2.0,28,0.00,,,-99.99,,2013-06-16 12:32:00,
2013-06-16 06:42:00,54.0,21.0,-100.00,SSW,196,1.0,2.0,28,0.00,,,-99.99,,2013-06-16 12:42:00,
2013-06-16 06:53:00,56.0,23.0,-100.00,NE,55,3.0,4.0,27,0.00,,,-99.99,,2013-06-16 12:53:00,
2013-06-16 07:22:00,60.0,20.0,-100.00,East,100,0.0,1.0,21,0.00,,,-99.99,,2013-06-16 13:22:00,
2013-06-16 07:34:00,61.0,24.0,-100.00,SSW,202,1.0,3.0,23,0.00,,,-99.99,,2013-06-16 13:34:00,
2013-06-16 07:53:00,63.0,21.0,-100.00,West,263,0.0,1.0,20,0.00,,,-99.99,,2013-06-16 13:53:00,
2013-06-16 08:22:00,62.0,26.0,-100.00,NE,37,6.0,7.0,25,0.00,,,-99.99,,2013-06-16 14:22:00,
2013-06-16 08:34:00,62.0,24.0,-100.00,NE,52,7.0,9.0,23,0.00,,,-99.99,,2013-06-16 14:34:00,
2013-06-16 08:43:00,63.0,25.0,-100.00,ENE,62,6.0,6.0,24,0.00,,,-99.99,,2013-06-16 14:43:00,
2013-06-16 08:52:00,64.0,25.0,-100.00,NE,48,4.0,5.0,22,0.00,,,-99.99,,2013-06-16 14:52:00,
2013-06-16 09:02:00,64.0,22.0,-100.00,NE,47,4.0,6.0,20,0.00,,,-99.99,,2013-06-16 15:02:00,
2013-06-16 09:12:00,64.0,21.0,-100.00,North,354,4.0,7.0,19,0.00,,,-99.99,,2013-06-16 15:12:00,
2013-06-16 09:23:00,64.0,22.0,-100.00,NNE,32,3.0,4.0,20,0.00,,,-99.99,,2013-06-16 15:23:00,
2013-06-16 09:33:00,64.0,22.0,-100.00,NNE,21,4.0,5.0,19,0.00,,,-99.99,,2013-06-16 15:33:00,
2013-06-16 09:43:00,64.0,23.0,-100.00,North,357,4.0,6.0,20,0.00,,,-99.99,,2013-06-16 15:43:00,
2013-06-16 09:52:00,65.0,24.0,-100.00,NNW,344,4.0,6.0,21,0.00,,,-99.99,,2013-06-16 15:52:00,
2013-06-16 10:01:00,65.0,23.0,-100.00,NNW,342,4.0,7.0,20,0.00,,,-99.99,,2013-06-16 16:01:00,
2013-06-16 10:12:00,67.0,23.0,-100.00,North,350,4.0,6.0,19,0.00,,,-99.99,,2013-06-16 16:12:00,
2013-06-16 10:22:00,67.0,23.0,-100.00,NE,47,4.0,6.0,19,0.00,,,-99.99,,2013-06-16 16:22:00,
2013-06-16 10:33:00,67.0,22.0,-100.00,NNE,13,5.0,7.0,18,0.00,,,-99.99,,2013-06-16 16:33:00,
2013-06-16 10:43:00,67.0,23.0,-100.00,North,4,6.0,9.0,18,0.00,,,-99.99,,2013-06-16 16:43:00,
2013-06-16 10:53:00,68.0,24.0,-100.00,North,350,7.0,9.0,19,0.00,,,-99.99,,2013-06-16 16:53:00,
2013-06-16 11:02:00,68.0,23.0,-100.00,NNE,32,5.0,7.0,18,0.00,,,-99.99,,2013-06-16 17:02:00,
2013-06-16 11:11:00,70.0,24.0,-100.00,NNW,346,5.0,8.0,17,0.00,,,-99.99,,2013-06-16 17:11:00,
2013-06-16 11:22:00,70.0,22.0,-100.00,North,356,7.0,12.0,16,0.00,,,-99.99,,2013-06-16 17:22:00,
2013-06-16 11:34:00,71.0,26.0,-100.00,NNE,27,6.0,8.0,19,0.00,,,-99.99,,2013-06-16 17:34:00,
2013-06-16 11:43:00,70.0,24.0,-100.00,North,8,4.0,8.0,18,0.00,,,-99.99,,2013-06-16 17:43:00,
2013-06-16 11:53:00,72.0,25.0,-100.00,NW,326,6.0,7.0,17,0.00,,,-99.99,,2013-06-16 17:53:00,
2013-06-16 12:02:00,72.0,21.0,-100.00,ENE,65,4.0,6.0,15,0.00,,,-99.99,,2013-06-16 18:02:00,
2013-06-16 12:12:00,72.0,23.0,-100.00,NE,54,7.0,9.0,16,0.00,,,-99.99,,2013-06-16 18:12:00,
2013-06-16 12:22:00,73.0,21.0,-100.00,NNW,333,6.0,11.0,14,0.00,,,-99.99,,2013-06-16 18:22:00,
2013-06-16 12:33:00,73.0,21.0,-100.00,NW,322,4.0,9.0,14,0.00,,,-99.99,,2013-06-16 18:33:00,
2013-06-16 12:43:00,75.0,25.0,-100.00,ENE,73,4.0,7.0,16,0.00,,,-99.99,,2013-06-16 18:43:00,
2013-06-16 12:52:00,74.0,21.0,-100.00,NW,320,4.0,7.0,14,0.00,,,-99.99,,2013-06-16 18:52:00,
2013-06-16 13:01:00,74.0,21.0,-100.00,NNW,343,11.0,15.0,14,0.00,,,-99.99,,2013-06-16 19:01:00,
2013-06-16 13:11:00,75.0,18.0,-100.00,SSW,193,2.0,4.0,11,0.00,,,-99.99,,2013-06-16 19:11:00,
2013-06-16 13:22:00,75.0,18.0,-100.00,NNW,336,4.0,9.0,11,0.00,,,-99.99,,2013-06-16 19:22:00,
2013-06-16 13:33:00,74.0,20.0,-100.00,SSW,196,7.0,13.0,12,0.00,,,-99.99,,2013-06-16 19:33:00,
2013-06-16 13:43:00,74.0,19.0,-100.00,West,281,2.0,6.0,12,0.00,,,-99.99,,2013-06-16 19:43:00,
2013-06-16 13:53:00,75.0,17.0,-100.00,East,86,6.0,7.0,11,0.00,,,-99.99,,2013-06-16 19:53:00,
2013-06-16 14:02:00,76.0,17.0,-100.00,NE,45,4.0,7.0,11,0.00,,,-99.99,,2013-06-16 20:02:00,
2013-06-16 14:11:00,78.0,18.0,-100.00,SW,227,5.0,12.0,10,0.00,,,-99.99,,2013-06-16 20:11:00,
2013-06-16 14:22:00,76.0,21.0,-100.00,West,274,12.0,16.0,12,0.00,,,-99.99,,2013-06-16 20:22:00,
2013-06-16 14:33:00,76.0,20.0,-100.00,West,278,6.0,14.0,12,0.00,,,-99.99,,2013-06-16 20:33:00,
2013-06-16 14:42:00,76.0,18.0,-100.00,SW,220,2.0,4.0,11,0.00,,,-99.99,,2013-06-16 20:42:00,
2013-06-16 14:53:00,77.0,16.0,-100.00,North,353,5.0,9.0,10,0.00,,,-99.99,,2013-06-16 20:53:00,
2013-06-16 15:01:00,77.0,16.0,-100.00,NE,55,8.0,11.0,10,0.00,,,-99.99,,2013-06-16 21:01:00,
2013-06-16 15:11:00,75.0,18.0,-100.00,ENE,68,4.0,7.0,11,0.00,,,-99.99,,2013-06-16 21:11:00,
2013-06-16 15:22:00,79.0,16.0,-100.00,West,268,2.0,3.0,9,0.00,,,-99.99,,2013-06-16 21:22:00,
2013-06-16 15:32:00,77.0,20.0,-100.00,West,264,6.0,9.0,11,0.00,,,-99.99,,2013-06-16 21:32:00,
2013-06-16 15:42:00,78.0,21.0,-100.00,WNW,294,5.0,6.0,12,0.00,,,-99.99,,2013-06-16 21:42:00,
2013-06-16 15:53:00,79.0,20.0,-100.00,WSW,258,2.0,5.0,11,0.00,,,-99.99,,2013-06-16 21:53:00,
2013-06-16 16:01:00,80.0,22.0,-100.00,NNW,342,6.0,10.0,12,0.00,,,-99.99,,2013-06-16 22:01:00,
2013-06-16 16:12:00,79.0,18.0,-100.00,West,275,7.0,11.0,10,0.00,,,-99.99,,2013-06-16 22:12:00,
2013-06-16 16:22:00,81.0,19.0,-100.00,West,268,5.0,8.0,10,0.00,,,-99.99,,2013-06-16 22:22:00,
2013-06-16 16:32:00,77.0,19.0,-100.00,NW,315,9.0,11.0,11,0.00,,,-99.99,,2013-06-16 22:32:00,
2013-06-16 16:42:00,78.0,15.0,-100.00,WNW,287,5.0,7.0,9,0.00,,,-99.99,,2013-06-16 22:42:00,
2013-06-16 16:52:00,77.0,16.0,-100.00,WSW,239,6.0,7.0,10,0.00,,,-99.99,,2013-06-16 22:52:00,
2013-06-16 17:01:00,78.0,17.0,-100.00,West,267,4.0,6.0,10,0.00,,,-99.99,,2013-06-16 23:01:00,
2013-06-16 17:11:00,79.0,17.0,-100.00,West,280,6.0,10.0,9,0.00,,,-99.99,,2013-06-16 23:11:00,
2013-06-16 17:22:00,78.0,16.0,-100.00,WSW,248,13.0,17.0,9,0.00,,,-99.99,,2013-06-16 23:22:00,
2013-06-16 17:32:00,78.0,18.0,-100.00,WSW,253,12.0,14.0,10,0.00,,,-99.99,,2013-06-16 23:32:00,
2013-06-16 17:42:00,76.0,18.0,-100.00,WNW,298,8.0,11.0,11,0.00,,,-99.99,,2013-06-16 23:42:00,
2013-06-16 17:51:00,77.0,20.0,-100.00,WNW,295,10.0,12.0,12,0.00,,,-99.99,,2013-06-16 23:51:00,
2013-06-16 18:02:00,77.0,16.0,-100.00,NW,308,9.0,12.0,10,0.00,,,-99.99,,2013-06-17 00:02:00,
2013-06-16 18:11:00,78.0,19.0,-100.00,WNW,294,6.0,7.0,11,0.00,,,-99.99,,2013-06-17 00:11:00,
2013-06-16 18:22:00,78.0,17.0,-100.00,WNW,292,8.0,10.0,10,0.00,,,-99.99,,2013-06-17 00:22:00,
2013-06-16 18:32:00,76.0,19.0,-100.00,WNW,302,9.0,10.0,11,0.00,,,-99.99,,2013-06-17 00:32:00,
2013-06-16 18:42:00,76.0,19.0,-100.00,WNW,301,6.0,7.0,12,0.00,,,-99.99,,2013-06-17 00:42:00,
2013-06-16 18:52:00,75.0,18.0,-100.00,NW,312,7.0,9.0,12,0.00,,,-99.99,,2013-06-17 00:52:00,
2013-06-16 19:02:00,76.0,25.0,-100.00,West,264,7.0,11.0,15,0.00,,,-99.99,,2013-06-17 01:02:00,
2013-06-16 19:11:00,73.0,26.0,-100.00,WNW,282,15.0,20.0,17,0.00,,,-99.99,,2013-06-17 01:11:00,
2013-06-16 19:22:00,73.0,26.0,-100.00,WNW,282,12.0,16.0,17,0.00,,,-99.99,,2013-06-17 01:22:00,
2013-06-16 19:32:00,73.0,24.0,-100.00,NW,315,9.0,12.0,16,0.00,,,-99.99,,2013-06-17 01:32:00,
2013-06-16 19:43:00,72.0,26.0,-100.00,NW,306,8.0,10.0,17,0.00,,,-99.99,,2013-06-17 01:43:00,
2013-06-16 19:53:00,72.0,23.0,-100.00,NW,311,11.0,13.0,16,0.00,,,-99.99,,2013-06-17 01:53:00,
2013-06-16 20:02:00,72.0,24.0,-100.00,NW,306,9.0,11.0,16,0.00,,,-99.99,,2013-06-17 02:02:00,
2013-06-16 20:12:00,72.0,25.0,-100.00,NW,318,6.0,9.0,17,0.00,,,-99.99,,2013-06-17 02:12:00,
2013-06-16 20:22:00,71.0,24.0,-100.00,NW,311,7.0,11.0,17,0.00,,,-99.99,,2013-06-17 02:22:00,
2013-06-16 20:34:00,71.0,26.0,-100.00,WNW,295,6.0,6.0,18,0.00,,,-99.99,,2013-06-17 02:34:00,
2013-06-16 20:43:00,71.0,26.0,-100.00,WNW,282,4.0,6.0,18,0.00,,,-99.99,,2013-06-17 02:43:00,
2013-06-16 20:53:00,70.0,26.0,-100.00,SSW,213,1.0,2.0,19,0.00,,,-99.99,,2013-06-17 02:53:00,
2013-06-16 21:02:00,70.0,26.0,-100.00,WNW,299,1.0,1.0,19,0.00,,,-99.99,,2013-06-17 03:02:00,
2013-06-16 21:12:00,69.0,26.0,-100.00,NW,325,1.0,1.0,20,0.00,,,-99.99,,2013-06-17 03:12:00,
2013-06-16 21:22:00,70.0,25.0,-100.00,NW,318,5.0,6.0,19,0.00,,,-99.99,,2013-06-17 03:22:00,
2013-06-16 21:33:00,70.0,24.0,-100.00,NNW,333,6.0,7.0,18,0.00,,,-99.99,,2013-06-17 03:33:00,
2013-06-16 21:44:00,70.0,23.0,-100.00,NNW,329,10.0,12.0,17,0.00,,,-99.99,,2013-06-17 03:44:00,
2013-06-16 21:53:00,69.0,22.0,-100.00,North,349,9.0,17.0,17,0.00,,,-99.99,,2013-06-17 03:53:00,
2013-06-16 22:02:00,70.0,22.0,-100.00,NNW,339,16.0,22.0,16,0.00,,,-99.99,,2013-06-17 04:02:00,
2013-06-16 22:12:00,68.0,24.0,-100.00,NW,312,12.0,17.0,18,0.00,,,-99.99,,2013-06-17 04:12:00,
2013-06-16 22:22:00,68.0,25.0,-100.00,NW,311,7.0,12.0,19,0.00,,,-99.99,,2013-06-17 04:22:00,
2013-06-16 22:34:00,67.0,25.0,-100.00,NW,309,9.0,12.0,20,0.00,,,-99.99,,2013-06-17 04:34:00,
2013-06-16 22:42:00,68.0,29.0,-100.00,North,10,12.0,20.0,23,0.00,,,-99.99,,2013-06-17 04:42:00,
2013-06-16 22:53:00,65.0,26.0,-100.00,NNW,328,6.0,8.0,23,0.00,,,-99.99,,2013-06-17 04:53:00,
2013-06-16 23:02:00,65.0,27.0,-100.00,West,278,7.0,10.0,24,0.00,,,-99.99,,2013-06-17 05:02:00,
2013-06-16 23:12:00,64.0,28.0,-100.00,West,271,8.0,13.0,25,0.00,,,-99.99,,2013-06-17 05:12:00,
2013-06-16 23:22:00,64.0,27.0,-100.00,WNW,292,9.0,13.0,25,0.00,,,-99.99,,2013-06-17 05:22:00,
2013-06-16 23:33:00,64.0,28.0,-100.00,WNW,292,9.0,12.0,25,0.00,,,-99.99,,2013-06-17 05:33:00,
2013-06-16 23:44:00,64.0,29.0,-100.00,NW,311,6.0,9.0,27,0.00,,,-99.99,,2013-06-17 05:44:00,
2013-06-16 23:53:00,64.0,31.0,-100.00,North,0,10.0,16.0,29,0.00,,,-99.99,,2013-06-17 05:53:00,